Regional Weather Roundup
Issued by NWS Cleveland, OH

Home | Current Version | Previous Version | Graphics & Text | Print | Product List | Glossary On
Versions: 1 2 3 4 5 6 7 8 9 10 11 12 13 14 15 16 17 18 19 20 21 22 23 24 25 26 27 28 29 30 31 32 33 34 35 36 37 38 39 40 41 42 43 44 45 46 47 48 49 50
186
ASUS41 KCLE 201402
RWRCLE
OHIO REGIONAL WEATHER ROUNDUP
NATIONAL WEATHER SERVICE CLEVELAND, OH
1000 AM EDT SUN MAY 20 2018

NOTE: "FAIR" INDICATES FEW OR NO CLOUDS BELOW 12,000 FEET WITH NO
SIGNIFICANT WEATHER AND/OR OBSTRUCTIONS TO VISIBILITY.

OHZ001>008-015>018-024>027-034-035-043-044-201500-
   NORTHWEST OHIO

CITY           SKY/WX    TMP DP  RH WIND       PRES   REMARKS
DEFIANCE       CLOUDY    63  57  81 CALM      30.13R
FINDLAY        CLOUDY    65  58  78 NW3       30.12R
TOLEDO EXPRESS CLOUDY    64  60  87 CALM      30.11R
TOLEDO EXEC    CLOUDY    62  58  86 E6        30.11S
LIMA           CLOUDY    62  58  86 NE6       30.12R
$$

OHZ009>014-019>023-028>033-038-089-201500-
   NORTHEAST OHIO

CITY           SKY/WX    TMP DP  RH WIND       PRES   REMARKS
CLE-HOPKINS    CLOUDY    61  57  87 N8        30.11R
CLE-LAKEFRONT  CLOUDY    56  53  90 N10       30.09S
CUY CO. ARPT   NOT AVBL
LORAIN-ELYRIA  CLOUDY    59  52  77 N8        30.12R
ASHTABULA      CLOUDY    56  54  93 NW6       30.10R
AKRON-CANTON   CLOUDY    66  60  81 NW6       30.08F
WOOSTER        CLOUDY    63  60  90 N8        30.09S
MANSFIELD      CLOUDY    62  61  96 W5        30.11R FOG
YOUNGSTOWN     CLOUDY    62  59  90 NW7       30.08S
$$

OHZ042-051>053-060>062-070>072-077>081-201500-
  SOUTHWEST OHIO

CITY           SKY/WX    TMP DP  RH WIND       PRES   REMARKS
CINC-COVINGTON FAIR      75  66  73 W5        30.09R
CINC-LUNKEN    FAIR      75  70  84 CALM      30.09R
HAMILTON       CLOUDY    70  29  21 NE6       30.10R HAZE
DAYTON         CLOUDY    65  62  90 N7        30.13R
WRIGHT-PAT AFB NOT AVBL
DAYTON GENERAL FAIR      71  63  75 NE3       30.09S HAZE
WILMINGTON     CLOUDY    70  68  93 NW8       30.10R FOG
$$

OHZ036-037-039>041-045>050-054>059-063>069-073>076-082>088-201500-
  CENTRAL AND SOUTHEAST OHIO

CITY           SKY/WX    TMP DP  RH WIND       PRES   REMARKS
COLUMBUS       FAIR      68  60  75 N8        30.09S
OSU AIRPORT    CLOUDY    64  59  83 N7        30.10R
BOLTON FIELD   SUNNY     66  61  82 N9        30.10S
RICKENBACK AFB FAIR      68  62  80 MISG      30.09R
NEWARK         PTSUNNY   69  62  78 NW5       30.08S
MARION         CLOUDY    63  58  83 NW5       30.12R
LANCASTER      PTSUNNY   71  66  84 NW7       30.09R
ZANESVILLE     PTSUNNY   71  64  78 N6        30.08S
NEW PHILLY     NOT AVBL
$$




USA.gov is the U.S. government's official web portal to all federal, state and local government web resources and services.